Content
SEND FEEDBACK

Daily
Averages
Monthly
Summary
France

ROUEN, FRANCE


Home > Europe > France
Elevation: 515 feet     Latitude: 49 23N     Longitude: 001 11E

WEATHER
 
SELECT A DAY
Number of Records: 173,620;   Date Range: 7/1/96 - 9/15/14
 
SHARE

PRINT THIS DATA

[ ← Previous Day ]
WEATHER ALMANAC - SEPTEMBER 28, 2013
[ Next Day → ]
[ °C ]   °F
Weather ElementAverageHighLow
Temperature61.3 °F66.2 °F (4:00 pm)58 °F (8:00 am)
Dewpoint57.7 °F60.8 °F (4:00 pm)55 °F (2:00 am)
Humidity87.8 %94 % (4:30 am)77 % (2:00 am)
Barometer29.74 in29.86 in (12:30 am)29.65 in (10:00 pm)
Wind Speed10.2 mph16.1 mph (2:30 am)
Weather ElementAverage
Visibility5.1 mi
Wind DirectionE (90.8 °)

Weather ElementTotal
Precipitation---
Heating Degree Days2.9 (Base 65)
Growing Degree Days12.1 (Base 50)
Averaged from 51 records on September 28, 2013
WEATHER CONDITIONS BREAKOUT
WIND DIRECTION BREAKOUT
WEATHER BY HOUR - SEPTEMBER 28, 2013
[ °C ]   °F
Local TimeTemperatureDewpointHumidityBarometerVisibilityWind DirectionWind SpeedGust SpeedPrecipitationEventsConditions
12:30 AM59.0 °F55.4 °F88 %29.86 in3.7 miEast (80°)11.5 mph
1:00 AM59.0 °F55.4 °F88 %29.83 in4.3 miENE (70°)13.8 mph
1:30 AM60.8 °F55.4 °F82 %29.83 in4.3 miEast (90°)9.2 mph
2:00 AM60.0 °F55.0 °F77 %29.85 in5.0 miSSE (160°)4.6 mphClear
2:00 AM59.0 °F55.4 °F88 %29.83 in5.0 miSSE (150°)4.6 mph
2:30 AM59.0 °F55.4 °F88 %29.80 in3.7 miEast (90°)16.1 mphRainLight Rain
3:00 AM59.0 °F55.4 °F88 %29.80 in3.7 miEast (90°)13.8 mphRainLight Rain
3:30 AM59.0 °F55.4 °F88 %29.77 in4.3 miEast (100°)16.1 mph
4:00 AM59.0 °F55.4 °F88 %29.83 in3.7 miSE (130°)6.9 mph
4:30 AM59.0 °F57.2 °F94 %29.80 in3.7 miEast (90°)12.7 mph
5:00 AM59.0 °F57.2 °F94 %29.77 in3.7 miENE (70°)15.0 mph
5:30 AM59.0 °F57.2 °F94 %29.74 in3.7 miEast (90°)15.0 mph
6:00 AM59.0 °F57.2 °F94 %29.74 in3.1 miSE (130°)10.4 mphMostly Cloudy
6:30 AM59.0 °F57.2 °F94 %29.74 in3.1 miESE (120°)9.2 mphMist
7:00 AM59.0 °F57.2 °F94 %29.74 inEast (90°)9.2 mphMist
7:30 AM59.0 °F57.2 °F94 %29.74 inESE (110°)8.1 mphMist
8:00 AM58.0 °F56.0 °F93 %29.75 in3.0 miEast (90°)11.5 mphMostly Cloudy
8:00 AM59.0 °F57.2 °F94 %29.74 in3.1 miEast (90°)11.5 mphMist
8:30 AM59.0 °F57.2 °F94 %29.74 inENE (70°)9.2 mphMist
9:00 AM59.0 °F57.2 °F94 %29.74 inEast (80°)11.5 mphMist
9:30 AM59.0 °F57.2 °F94 %29.74 in3.1 miEast (90°)8.1 mphMist
10:00 AM60.8 °F57.2 °F88 %29.74 in4.3 miENE (60°)11.5 mph
10:30 AM60.8 °F57.2 °F88 %29.74 in5.0 miEast (80°)10.4 mph
11:00 AM62.6 °F57.2 °F82 %29.74 in5.6 miEast (90°)9.2 mph
11:30 AM62.6 °F57.2 °F82 %29.74 in6.2 miEast (80°)11.5 mph
12:00 PM62.6 °F57.2 °F82 %29.74 in6.2 miEast (80°)13.8 mph
12:30 PM62.6 °F57.2 °F82 %29.74 in6.2 miEast (80°)13.8 mph
1:00 PM62.6 °F57.2 °F82 %29.74 in5.0 miEast (90°)12.7 mphRainLight Rain
1:30 PM62.6 °F59.0 °F88 %29.77 in6.2 miSouth (170°)3.5 mphPartly Cloudy
2:00 PM62.0 °F58.0 °F83 %29.75 in6.0 miEast (80°)8.1 mphRainLight Rain
2:00 PM62.6 °F59.0 °F88 %29.74 in5.6 miEast (80°)8.1 mphMostly Cloudy
2:30 PM62.6 °F59.0 °F88 %29.74 in4.3 miEast (80°)11.5 mphRainLight Rain
3:00 PM62.6 °F59.0 °F88 %29.71 in5.0 miENE (60°)9.2 mphMostly Cloudy
3:30 PM64.4 °F59.0 °F83 %29.71 in6.2 miENE (70°)11.5 mph
4:00 PM66.2 °F60.8 °F83 %29.71 in6.2 miENE (60°)11.5 mph
4:30 PM66.2 °F60.8 °F83 %29.68 in6.2 miENE (60°)11.5 mph
5:00 PM64.4 °F60.8 °F88 %29.68 in6.2 miENE (60°)10.4 mph
5:30 PM64.4 °F60.8 °F88 %29.68 in6.2 miENE (60°)10.4 mph
6:00 PM64.4 °F59.0 °F83 %29.68 in6.2 miENE (70°)12.7 mph
6:30 PM64.4 °F59.0 °F83 %29.68 in6.2 miENE (70°)11.5 mph
7:00 PM62.6 °F59.0 °F88 %29.68 in6.2 miENE (70°)11.5 mph
7:30 PM62.6 °F57.2 °F82 %29.71 in4.3 miSouth (170°)6.9 mph
8:00 PM62.0 °F58.0 °F84 %29.72 in9.0 miSE (140°)5.8 mphRainLight Rain
8:00 PM62.6 °F59.0 °F88 %29.71 in6.2 miSE (140°)5.8 mphRainLight Rain
8:30 PM62.6 °F59.0 °F88 %29.71 in6.2 miESE (110°)6.9 mphOvercast
9:00 PM62.6 °F59.0 °F88 %29.71 in6.2 miENE (70°)8.1 mphOvercast
9:30 PM62.6 °F59.0 °F88 %29.68 in6.2 miNE (50°)8.1 mph
10:00 PM62.6 °F59.0 °F88 %29.65 in6.2 miNE (50°)11.5 mph
10:30 PM60.8 °F59.0 °F94 %29.68 in5.0 miEast (90°)10.4 mph
11:00 PM60.8 °F57.2 °F88 %29.68 in6.2 miEast (90°)8.1 mph
11:30 PM60.8 °F57.2 °F88 %29.68 in6.2 miEast (90°)5.8 mph
Hourly data recorded from LFOP, located miles away from Rouen, France







STORIES FROM OUR PARTNERS